sat.trackr.live / text

‹ back to catalog

GONETS-M 5

NORAD 39249 · 2013-048A

PAYLOAD ACTIVE UNKNOWN

§ Identity

Operator
Country
CIS
Launch date
2013-09-11
Launch site
PLMSC
Launch vehicle
Mass (kg)
RCS (m²)
1.68

External: N2YO · Heavens-Above · Gunter

§ Orbital elements

Epoch: 2026-05-25T04:09:34.657920Z

Period
115.86 min
Inclination
82.4845°
Eccentricity
0.0015612
Mean motion
12.42890973 rev/d
Perigee alt
1,482.1 km
Apogee alt
1,506.7 km
Semi-major
7,872.5 km
B*
-3.3770e-4
RAAN
357.7323°
Arg perigee
263.9567°
Mean anomaly
95.9734°
Rev number
57,602

§ Raw data

GONETS-M 51 39249U 13048A   26145.17331780 -.00000037  00000+0 -33770-3 0  99952 39249  82.4845 357.7323 0015612 263.9567  95.9734 12.42890973576025

JSON: /api/v1/satellites/39249 · /tle

For live sub-satellite position, see the globe view (requires WebGL).

§ Visibility from observer

Set your observer location to see the next 7 days of passes ≥ 10°. The values pass through the URL so the page stays shareable.

No JS? Fill the form by hand. The geolocation button needs JavaScript.

§ Radio — SatNOGS DB

ModeDescriptionDownlinkUplink
FM UHF Unknown 387.175 MHz
FM UHF Unknown 387.462 MHz
FM UHF Unknown 388.787 MHz
FM UHF Unknown 388.687 MHz

4 transmitters · refreshed weekly from db.satnogs.org